Flag for Morocco Weather past 2 weeks in Rabat, Morocco

Now
73 °F

Passing clouds.


Feels Like: 73 °F
Forecast: 68 / 78 °F
Wind: 3 mph from Northwest

Location: Rabat-Sale

Current Time: Sep 30, 2014 at 9:12:01 PM

Latest Report: Sep 30, 2014 at 8:30 PM


Visibility: 5 mi

Pressure: 29.98 "Hg

Humidity: 83%

Dew point: 68 °F

Location of RabatLocation

Historic Weather in Rabat — Graph

°F

Rabat temperature yesterday

Maximum temperature yesterday: 77 °F (at 12:30 PM)
Minimum temperature yesterday: 59 °F (at 4:00 AM)
Average temperature yesterday: 68 °F

Past Weeks' High & Low Weather Summary

 TemperatureHumidityPressure
High82 °F (Sep 16, 11:00 AM)100% (Sep 29, 7:00 AM)30.15 "Hg (Sep 29, 7:00 AM)
Low59 °F (Sep 23, 7:30 AM)37% (Sep 16, 11:00 AM)29.74 "Hg (Sep 16, 6:00 AM)
Average70 °F77%30.00 "Hg
* Reported Sep 15 8:00 PM — Sep 30 8:00 PM, Rabat, Weather by CustomWeather, © 2014

Note: Actual official high and low records may vary slightly from our data, if they occured in-between our weather recording intervals... More about our weather records

Advertising

Rabat weather history for previous 24 hours

 ConditionsComfort  
Time TempWeatherWind HumidityBarometerVisibility
8:00 PM
Sep 30
73 °FPassing clouds.3 mph83%29.98 "Hg5 mi
7:30 PM73 °FPassing clouds.5 mph83%29.98 "Hg5 mi
7:00 PM73 °FPassing clouds.6 mph83%29.98 "Hg5 mi
6:30 PM75 °FPassing clouds.8 mph74%29.98 "Hg5 mi
6:00 PM77 °FPartly sunny.10 mph65%29.98 "Hg5 mi
5:30 PM79 °FPassing clouds.13 mph58%29.98 "Hg5 mi
5:00 PM79 °FPassing clouds.14 mph54%29.98 "Hg5 mi
4:30 PM79 °FPassing clouds.13 mph54%29.98 "Hg5 mi
4:00 PM79 °FPassing clouds.14 mph54%29.98 "Hg5 mi
3:30 PM79 °FPassing clouds.13 mph58%29.98 "Hg5 mi
3:00 PM81 °FPassing clouds.12 mph58%29.98 "Hg5 mi
2:30 PM79 °FPassing clouds.12 mph58%29.98 "Hg5 mi
2:00 PM79 °FPassing clouds.9 mph65%30.01 "Hg5 mi
1:30 PM77 °FScattered clouds.8 mph65%30.01 "Hg4 mi
1:00 PM77 °FScattered clouds.9 mph69%30.01 "Hg4 mi
12:30 PM77 °FScattered clouds.8 mph69%30.04 "Hg4 mi
12:00 PM77 °FScattered clouds.8 mph69%30.04 "Hg4 mi
11:30 AM75 °FPartly sunny.7 mph74%30.04 "Hg4 mi
11:00 AM75 °FPartly sunny.5 mph74%30.04 "Hg4 mi
10:00 AM72 °FFog.5 mph83%30.07 "Hg2 mi
9:30 AM72 °FFog.2 mph88%30.07 "Hg2 mi
9:00 AM70 °FFog.No wind94%30.07 "Hg2 mi
8:30 AM66 °FFog.2 mph94%30.07 "Hg2 mi
8:00 AM63 °FFog.No wind94%30.07 "Hg1 mi
7:30 AM61 °FFog.No wind94%30.07 "Hg1 mi
7:00 AM63 °FFog.No wind94%30.07 "Hg2 mi
6:30 AM63 °FBroken clouds.No wind94%30.07 "Hg3 mi
6:00 AM61 °FPartly cloudy.No wind94%30.07 "Hg3 mi
5:30 AM61 °FPartly cloudy.No wind94%30.07 "Hg3 mi
5:00 AM61 °FPassing clouds.1 mph94%30.07 "Hg3 mi
4:30 AM61 °FPassing clouds.No wind94%30.07 "Hg2 mi
4:00 AM61 °FPassing clouds.No wind94%30.07 "Hg3 mi
3:30 AM59 °FPassing clouds.1 mph94%30.07 "Hg3 mi
3:00 AM59 °FPassing clouds.No wind94%30.09 "Hg3 mi
2:30 AM61 °FPassing clouds.No wind94%30.09 "Hg3 mi
2:00 AM61 °FPassing clouds.No wind94%30.12 "Hg3 mi
1:00 AM61 °FPassing clouds.2 mph94%30.12 "Hg3 mi
12:30 AM61 °FPassing clouds.1 mph88%30.12 "Hg3 mi
12:00 AM61 °FPassing clouds.No wind94%30.12 "Hg4 mi
11:30 PM
Sep 29
61 °FPassing clouds.1 mph94%30.15 "Hg4 mi
11:00 PM63 °FPassing clouds.No wind94%30.15 "Hg4 mi
10:30 PM64 °FPassing clouds.1 mph88%30.15 "Hg4 mi
10:00 PM66 °FPassing clouds.1 mph83%30.15 "HgN/A
9:30 PM68 °FPassing clouds.6 mph83%30.15 "HgN/A
9:00 PM70 °FPassing clouds.5 mph78%30.15 "HgN/A
Weather by CustomWeather, © 2014

See weather overviewHow to use our weather pages